Location: La Coruña
(43.3623°N, 8.4115°W)
Time: 19:52:39
(UTC+01:00)

STARLINK-1094 - Pass Details

Date: 17 January 2020
Orbit: 348 x 351 km, 53.0° (Epoch: 18 February)

Event Time Altitude Azimuth Distance (km) Brightness Sun altitude
Rises 19:53:24 0° 241° (WSW) 2,152 8.2 -15.8°
Reaches altitude 10° 19:55:25 10° 245° (WSW) 1,313 6.8 -16.1°
Maximum altitude 19:58:18 61° 327° (NNW) 403 3.0 -16.6°
Enters shadow 19:58:57 45° 23° (NNE) 491 3.1 -16.8°
